Wind_Speed
20 19 19 18 18 17 17 16 15 14 14 13 12 11 10 9 8 7 6 5 4 4 3 3 2 2 1 1 1 1 2 2 2 2 2 2 3 3 4 4 5 5 6 6 7 7 7 7 7 7 7 6 6 5 5 4 5 5 5 5 6 7 8 8 9 9 9 10 10
20 19 19 18 18 17 17 16 15 14 13 12 11 10 10 9 8 7 6 5 5 4 3 3 2 1 1 1 1 2 2 2 2 2 3 3 3 4 4 5 5 6 6 7 7 7 7 7 7 6 5 5 4 3 3 3 4 4 4 5 6 7 7 8 9 9 9 10 11
19 19 18 18 17 17 16 16 15 14 13 12 11 10 9 9 8 7 7 6 5 4 3 2 2 1 1 1 2 3 3 3 3 3 3 4 4 4 5 5 6 6 7 7 7 8 8 7 6 5 4 3 2 2 2 3 2 3 4 5 5 6 7 7 8 9 10 10 11
19 18 18 17 16 16 15 15 14 14 13 12 11 10 10 9 8 8 7 6 5 4 3 2 1 1 1 2 3 3 3 4 4 4 4 4 5 5 5 6 6 7 7 8 8 8 7 7 5 3 2 1 1 2 2 2 1 2 3 4 5 6 6 7 8 9 10 11 12
18 18 17 16 15 15 14 14 14 13 13 12 11 11 10 9 8 7 6 6 5 4 3 2 1 1 2 2 3 3 4 4 5 5 5 5 5 5 6 6 7 7 8 8 8 8 7 5 3 1 0 1 1 2 2 1 1 2 3 4 5 6 7 8 9 10 11 12 12
18 17 17 16 15 14 13 13 13 13 12 12 11 11 10 9 8 7 6 6 5 4 3 2 2 2 2 2 2 3 4 5 5 5 5 5 5 5 6 6 7 7 8 8 8 8 6 4 2 1 0 0 1 1 1 0 1 2 3 4 5 7 8 9 10 11 11 12 13
18 17 17 16 15 14 14 13 13 12 12 12 11 11 10 9 8 7 6 5 5 4 4 3 3 2 2 2 2 3 4 4 5 5 5 4 5 5 5 6 7 7 7 7 8 8 6 5 3 2 2 1 1 1 1 2 3 4 5 5 6 8 9 9 10 11 12 13 14
17 17 17 16 16 15 15 14 13 13 12 12 11 10 9 8 8 7 6 5 5 5 4 4 3 2 2 2 2 3 3 3 3 3 3 4 4 5 5 6 6 7 7 7 8 8 7 6 5 4 4 3 3 3 3 4 5 5 6 7 7 8 9 10 10 11 12 14 16
18 18 17 17 16 16 15 14 13 13 12 11 11 10 9 8 7 6 5 5 5 5 5 4 4 3 3 2 2 2 2 3 3 3 3 4 4 5 6 6 6 6 7 8 9 9 8 7 7 6 5 5 5 5 5 6 6 6 7 7 8 8 9 10 11 12 13 15 18
19 19 18 18 17 16 15 14 13 12 12 11 10 10 9 8 6 5 5 5 5 6 5 5 4 4 3 3 3 3 3 3 3 3 4 4 5 6 6 7 7 7 7 8 9 9 8 8 7 7 6 6 6 6 6 6 7 7 7 8 8 9 9 10 11 13 15 18 20
20 20 19 19 18 17 15 14 13 12 11 11 10 9 8 7 6 5 5 5 6 6 6 5 5 4 4 4 3 4 4 4 4 4 5 5 6 7 7 7 7 7 8 8 8 7 7 7 7 7 7 7 7 7 6 7 7 7 7 8 8 9 9 10 12 14 17 20 22
20 20 19 19 18 17 16 14 13 12 11 11 10 9 8 7 7 6 6 6 7 6 6 6 5 5 4 4 4 5 5 5 5 5 6 7 8 8 8 8 8 8 8 8 7 6 6 7 7 7 7 7 7 7 7 7 7 7 7 8 8 9 10 11 13 16 19 21 22
20 20 19 19 18 17 16 15 14 13 12 11 10 10 9 8 8 7 7 8 8 7 7 6 6 5 5 5 5 5 5 6 6 7 7 8 9 9 9 9 8 8 8 7 7 6 6 7 7 7 7 7 7 7 7 7 7 7 7 8 9 9 10 12 15 17 20 22 22
21 20 20 19 18 17 16 15 15 14 13 12 12 11 10 9 9 8 8 8 8 8 7 7 6 6 6 6 6 6 6 7 7 8 9 9 10 10 10 9 9 9 9 8 8 8 7 7 7 7 7 7 7 7 7 7 7 7 8 8 9 10 11 13 16 19 21 22 22
21 21 20 19 18 17 17 16 16 15 14 13 13 12 11 10 9 9 9 9 9 8 8 7 7 7 7 7 7 7 7 8 9 9 10 10 10 10 10 10 10 10 10 10 10 9 9 8 8 7 7 7 7 7 7 7 7 8 8 9 9 10 12 14 17 19 21 21 21
22 21 20 19 18 18 17 17 17 16 15 15 14 12 11 10 9 9 9 9 9 9 8 8 8 8 8 8 8 8 8 9 9 10 10 10 10 10 10 10 10 11 11 11 11 10 10 9 8 8 7 7 7 7 8 8 8 8 9 9 10 11 13 15 17 19 20 20 19
23 22 21 20 19 18 18 18 18 17 16 15 14 12 11 10 9 9 9 9 9 9 9 9 9 9 9 9 9 9 10 10 10 10 10 10 10 9 10 10 11 11 11 11 11 10 10 9 8 8 8 8 8 8 8 9 9 9 9 10 11 12 14 16 18 19 19 19 17
24 23 22 21 20 19 19 19 19 18 17 16 14 12 10 9 9 9 9 10 10 9 9 10 10 10 10 10 10 11 11 11 11 11 10 10 10 10 10 10 11 12 12 11 10 10 10 9 9 8 8 8 9 9 9 9 10 10 10 10 11 12 14 16 18 19 19 17 16
25 24 23 22 21 20 20 20 19 18 17 15 14 11 10 9 9 10 10 10 10 10 10 11 12 12 12 12 12 12 12 12 11 11 11 10 10 10 10 11 12 12 12 11 11 10 10 10 9 9 9 9 9 10 10 10 10 10 10 11 12 13 14 16 18 18 17 16 14
26 25 24 23 22 21 20 20 19 18 17 15 13 11 10 10 10 10 11 10 10 11 12 13 13 13 13 13 13 13 13 12 12 11 11 11 10 11 11 12 12 13 12 12 11 11 11 10 10 10 10 10 10 10 10 10 10 10 11 11 12 13 15 16 17 17 16 14 12
27 26 25 23 22 21 21 20 19 18 17 15 13 11 11 11 11 11 11 11 11 13 14 14 15 14 14 14 14 13 13 13 13 12 12 11 11 11 11 12 13 13 13 13 12 12 12 11 11 11 11 11 11 11 11 10 10 10 11 12 12 14 15 17 17 16 15 12 10
27 26 25 24 23 22 21 20 19 18 16 14 13 12 12 12 12 12 12 12 13 14 15 16 16 15 15 14 14 14 14 14 13 13 12 12 12 11 12 12 13 14 14 14 14 13 12 12 11 11 11 11 11 11 11 11 11 11 11 12 13 14 16 17 16 15 13 10 9
27 26 24 23 23 22 21 21 19 18 16 14 13 13 13 13 13 13 13 13 14 15 16 17 16 16 15 14 14 14 14 14 14 13 13 13 12 12 12 13 14 14 15 15 14 14 13 13 12 12 12 12 11 11 11 11 11 11 11 12 13 15 16 16 16 14 11 9 8
26 25 24 23 23 23 22 21 19 17 15 14 14 14 14 14 14 13 13 14 15 16 17 17 16 15 15 14 14 14 14 14 14 14 14 13 13 13 13 14 15 15 16 15 15 15 14 14 13 13 12 12 11 11 11 10 10 10 11 13 14 16 16 16 14 12 9 8 8
26 25 25 24 24 23 22 21 18 16 15 14 15 15 15 15 14 14 14 15 16 17 17 16 16 15 15 14 14 14 14 14 14 14 14 14 13 13 14 15 16 16 16 15 15 15 15 14 13 12 12 11 11 10 10 10 10 11 12 14 15 16 16 15 12 10 8 8 8
26 26 25 25 25 23 22 19 17 15 15 15 15 15 15 14 14 14 15 16 17 17 17 16 16 15 15 15 14 13 13 14 14 14 14 14 14 14 15 16 16 16 15 15 14 14 14 13 12 12 11 11 10 10 9 9 10 11 13 14 15 15 14 13 11 9 8 8 9
27 26 26 25 24 23 20 17 15 15 15 15 15 15 15 14 14 14 15 17 17 17 17 17 16 16 15 14 13 13 13 13 14 14 14 15 15 15 16 16 17 16 15 14 14 14 13 12 12 11 11 10 10 9 9 9 10 11 13 14 15 14 13 11 10 9 9 9 9
27 27 26 25 23 20 18 16 15 15 15 15 15 15 14 14 14 15 17 18 18 18 18 18 17 16 15 14 13 13 13 13 13 14 14 15 15 16 16 17 16 15 14 14 14 14 13 12 11 11 11 10 10 9 9 9 10 11 13 14 14 13 11 10 9 9 9 10 10
27 27 25 23 21 18 16 15 15 15 15 15 15 14 14 14 15 16 18 19 19 19 19 18 17 15 14 14 13 13 13 13 13 14 14 15 16 16 16 16 15 14 14 14 13 13 12 12 11 11 10 10 10 9 9 9 10 11 13 13 13 12 11 10 10 10 10 10 11
27 25 24 21 19 17 15 15 15 15 15 14 14 13 14 15 16 18 19 20 21 20 19 17 16 15 15 14 14 14 13 13 14 14 15 15 16 16 16 16 14 14 14 14 13 13 12 11 11 10 10 10 10 9 9 9 10 11 12 13 13 12 11 11 11 10 10 11 11
25 24 22 20 17 16 15 15 15 14 14 13 13 13 14 16 17 19 20 21 21 20 18 16 16 15 15 15 14 14 14 14 14 15 15 15 16 16 16 15 14 14 14 14 13 13 12 11 11 11 11 10 10 9 9 9 10 11 12 13 13 13 12 12 11 11 10 11 11
23 21 19 17 15 14 14 14 13 13 12 12 12 13 15 17 18 20 21 21 20 18 17 16 16 16 16 16 15 15 15 15 15 15 15 16 16 16 16 15 15 15 15 15 14 13 12 12 11 11 11 10 10 9 9 9 10 11 12 13 13 13 12 12 11 11 10 11 11
20 18 16 14 14 13 13 13 12 12 11 11 12 13 15 17 19 20 20 20 18 17 16 17 17 17 17 17 17 16 16 16 16 16 16 16 16 16 16 16 16 16 16 16 15 14 13 12 12 11 11 10 10 9 9 9 10 11 12 13 13 13 12 12 11 11 10 11 12
17 15 14 13 13 13 12 12 11 11 10 11 12 14 16 18 20 20 20 18 17 17 17 18 18 18 18 18 17 17 17 17 17 17 17 17 17 17 17 17 17 17 17 17 16 15 14 13 12 12 11 11 10 10 9 9 10 11 11 12 13 13 12 11 11 11 11 11 12
15 14 14 13 13 12 11 10 10 9 10 11 12 15 17 19 19 19 18 17 16 17 18 19 19 19 19 18 18 17 17 17 17 17 17 17 17 17 17 18 18 18 17 17 16 15 14 13 13 12 12 11 11 11 10 10 10 10 11 12 13 13 12 11 11 12 12 12 13
15 14 14 13 12 11 10 9 9 8 9 11 13 15 17 17 17 16 16 16 17 18 19 20 20 20 19 18 18 18 18 18 18 18 18 18 18 18 18 18 18 18 17 17 16 15 14 14 13 13 12 12 12 12 11 11 10 10 11 12 12 12 12 12 12 12 12 13 14
14 14 13 12 11 10 9 8 7 8 9 11 13 14 15 15 15 14 15 16 18 19 20 20 20 20 19 19 19 19 19 19 18 18 17 17 17 18 18 18 18 18 18 17 16 15 15 15 14 14 13 13 13 12 12 11 11 12 12 12 12 12 12 12 11 12 12 12 13
14 13 12 11 10 9 7 6 6 7 9 11 13 15 15 15 14 15 15 16 17 18 19 19 19 19 19 19 19 19 18 18 17 17 17 16 17 17 18 18 18 18 18 18 17 17 16 16 16 15 15 14 14 14 13 12 12 13 13 13 13 13 12 12 11 11 11 11 12
13 12 11 10 9 8 7 6 6 8 10 13 14 16 16 16 16 15 15 15 15 15 16 16 17 18 18 18 18 18 18 17 16 16 16 16 16 17 17 18 18 19 19 19 18 18 17 17 17 16 16 15 15 14 14 13 14 14 15 14 14 13 12 12 11 11 10 11 11
12 11 11 10 9 8 8 7 8 10 12 14 16 17 17 16 16 15 15 14 14 13 14 14 15 16 17 17 17 17 17 16 16 16 16 16 16 16 17 18 18 19 19 19 19 18 18 18 17 17 16 16 15 15 15 15 15 15 16 15 15 14 13 12 12 11 10 10 10
12 12 11 10 10 9 9 8 9 11 13 15 17 17 16 15 15 14 14 14 13 13 13 14 14 15 15 16 16 16 16 16 16 16 16 16 16 16 17 18 18 19 19 19 19 19 18 18 17 17 16 16 16 16 16 16 16 16 17 17 16 15 14 13 12 12 11 10 10
Wind_Direction
166 165 165 165 165 164 163 163 165 167 169 169 168 166 165 163 158 153 149 145 141 140 142 146 153 160 173 218 296 320 332 338 339 337 338 340 346 350 353 355 355 355 354 352 349 346 343 340 339 338 337 336 338 344 356 13 28 34 37 38 41 41 40 38 35 30 25 19 14
167 166 166 166 165 164 162 161 161 162 163 164 165 164 162 160 154 148 141 135 132 132 135 142 155 170 197 269 301 313 321 326 328 327 326 328 331 334 339 343 345 346 347 347 344 342 339 337 336 337 338 340 347 2 25 40 40 35 32 34 35 32 28 26 22 18 13 9 4
169 169 169 168 167 165 163 161 160 159 159 159 161 161 159 156 151 145 138 132 130 131 136 144 158 185 252 295 305 310 315 321 322 323 322 321 322 325 329 333 337 340 341 341 340 337 336 335 335 338 343 352 11 49 70 67 48 33 29 28 23 18 15 13 10 6 2 360 356
174 173 172 171 170 168 167 165 163 161 160 160 160 159 157 154 150 145 140 137 137 139 146 155 171 223 277 293 302 307 313 319 323 323 321 318 318 319 323 327 331 334 335 335 334 334 333 333 335 340 353 22 91 112 111 97 59 30 20 16 10 7 5 2 357 354 352 350 347
177 177 176 175 174 172 170 169 165 164 163 162 160 158 157 155 152 149 148 147 148 153 165 179 202 242 273 289 299 308 316 322 324 323 320 318 317 318 320 323 327 329 330 330 328 328 328 328 330 337 21 125 136 134 126 114 54 20 8 0 357 355 353 351 348 345 343 341 338
177 178 178 177 175 172 169 168 166 164 164 163 162 160 158 157 156 156 157 159 164 173 184 198 218 242 268 287 301 313 319 324 324 322 319 317 316 317 319 321 324 325 326 325 323 320 318 316 311 302 267 148 138 138 145 316 331 339 344 345 345 343 342 342 340 338 336 334 332
176 177 176 175 173 169 165 164 165 165 165 166 165 163 162 163 164 166 169 174 181 188 196 205 218 236 258 280 298 311 320 324 324 321 317 314 314 315 317 319 320 321 321 320 315 309 304 297 291 284 280 274 272 285 303 308 315 323 330 333 334 334 334 334 333 332 331 330 329
177 177 175 173 170 166 163 163 164 166 167 169 168 168 169 171 174 177 182 188 194 199 205 211 219 230 248 267 287 303 314 320 319 315 312 311 312 314 315 316 315 315 315 312 306 299 291 283 277 273 271 272 279 290 299 307 312 317 321 324 325 326 327 327 327 328 328 328 328
178 177 174 171 168 166 164 164 166 168 169 171 173 175 178 181 184 188 192 199 206 212 214 214 218 226 236 250 268 285 295 299 299 299 302 306 310 312 313 311 311 309 307 304 300 292 283 274 269 267 268 272 278 286 294 302 308 313 315 316 317 319 321 322 324 326 328 329 329
178 176 174 171 169 167 166 166 167 169 171 173 176 180 184 189 193 198 204 213 218 216 213 211 215 221 230 240 254 267 275 279 283 289 296 303 308 310 311 309 308 306 306 305 300 291 280 269 265 266 269 274 280 285 291 296 303 308 310 310 312 315 318 321 323 327 330 331 331
178 177 175 172 170 169 168 168 169 171 174 176 180 184 189 194 200 207 215 221 218 212 208 210 213 220 231 244 255 263 268 274 279 287 295 301 306 308 308 307 307 307 309 311 308 297 281 271 268 270 273 276 280 284 288 292 297 302 304 307 309 313 317 321 325 329 332 333 332
178 177 175 173 171 171 171 171 173 175 178 181 184 188 192 196 202 210 215 216 211 209 209 212 217 226 240 254 263 267 269 272 279 286 293 299 304 306 307 305 304 306 311 316 316 306 290 281 278 276 275 276 278 281 284 288 292 295 299 302 306 311 317 322 327 331 334 334 333
176 175 174 173 172 172 174 175 178 181 184 187 189 190 192 194 199 204 208 208 208 209 211 215 224 236 250 261 268 270 270 272 277 284 290 296 302 305 306 304 301 302 306 311 315 311 302 293 286 281 277 275 275 277 280 283 287 290 294 299 304 310 317 323 328 332 334 334 333
175 173 172 172 172 174 176 179 182 185 187 188 189 188 187 188 191 196 201 204 207 210 214 221 232 245 257 264 268 270 271 273 277 282 288 294 300 304 304 302 298 296 299 303 307 307 305 298 289 283 278 275 273 273 275 278 282 287 291 297 304 310 317 323 328 332 334 334 332
173 172 171 172 173 176 179 181 183 184 185 185 184 182 181 181 185 190 197 203 208 214 220 229 240 252 260 265 267 269 271 274 277 281 286 292 297 300 300 297 293 292 293 296 299 301 301 296 290 283 277 274 271 271 272 275 279 284 290 296 303 310 317 323 328 331 333 333 332
172 172 172 173 175 178 180 181 181 181 180 180 178 176 176 177 182 190 198 205 211 219 228 238 248 255 260 263 265 267 269 272 275 279 283 288 292 294 293 291 289 290 291 293 295 296 296 293 288 282 276 272 269 268 270 273 277 283 288 294 301 309 316 322 328 331 333 333 332
173 173 174 175 177 179 180 180 179 178 177 176 174 174 175 178 185 194 203 210 216 224 235 246 253 257 258 260 263 265 266 268 272 276 280 283 286 286 285 284 286 289 292 293 292 293 292 289 283 277 273 270 268 267 269 272 276 280 286 293 301 308 316 322 328 331 333 332 330
174 176 177 177 178 179 179 178 177 176 176 175 174 175 179 185 193 201 209 216 222 232 242 250 255 256 256 257 259 262 264 265 268 272 276 280 281 281 280 282 285 290 294 294 292 289 287 283 277 272 268 266 265 266 268 271 274 279 285 293 301 309 316 323 328 331 332 330 327
176 178 179 179 179 179 179 178 178 177 177 177 178 181 187 194 201 206 211 218 228 239 248 252 253 254 254 255 257 259 261 262 265 268 273 276 277 278 278 281 285 290 292 292 288 284 281 276 271 266 263 262 262 264 266 268 272 279 287 296 304 311 318 325 329 331 330 327 323
178 179 180 181 181 181 181 181 181 181 181 183 186 190 194 200 205 208 212 221 233 243 249 251 251 251 251 253 255 256 258 260 262 265 269 272 274 275 277 281 284 287 288 285 281 276 272 268 265 262 260 259 259 261 263 266 272 281 290 298 306 314 321 326 329 329 327 322 317
180 181 182 182 183 184 184 185 185 185 187 189 193 197 200 202 204 208 215 226 236 244 248 249 248 248 248 251 252 254 256 258 260 263 266 269 271 275 278 281 283 283 282 279 273 267 263 260 258 257 256 256 256 257 261 267 276 284 292 299 308 316 322 326 327 326 322 316 308
181 182 183 184 185 186 186 187 188 189 191 194 198 200 201 201 204 210 220 231 239 244 246 246 245 245 247 249 250 252 254 257 259 262 265 268 270 274 278 280 280 280 277 273 267 260 255 253 253 252 252 252 252 255 261 270 278 286 293 302 311 319 323 325 324 322 316 308 300
182 183 184 186 187 187 187 187 188 191 194 197 199 199 199 201 206 215 226 235 242 245 245 244 243 244 245 248 249 250 252 254 258 262 266 268 270 273 275 277 277 277 274 269 262 255 251 249 247 247 247 248 250 256 264 273 281 288 297 307 315 321 323 323 321 317 310 300 294
184 185 186 187 187 186 186 187 189 192 195 198 198 198 200 204 212 221 231 239 244 245 243 242 241 242 243 245 246 248 250 253 258 263 266 268 269 270 272 273 274 274 271 266 259 253 250 247 244 242 243 246 251 259 267 275 284 294 304 313 319 322 323 322 318 312 302 292 291
186 187 187 186 186 185 186 187 190 193 196 197 197 199 203 210 218 227 235 241 244 243 240 238 238 239 240 241 242 245 250 256 262 265 266 266 267 267 268 269 271 271 268 262 255 250 248 246 243 241 242 246 252 260 269 278 289 300 311 318 321 323 322 320 314 305 295 289 292
188 188 187 186 185 186 187 190 193 195 196 196 198 203 208 216 224 232 238 242 241 239 235 234 234 236 237 238 241 246 254 261 266 268 267 265 264 262 263 265 268 268 264 257 250 246 243 242 241 242 243 247 252 260 270 282 294 306 315 321 323 323 321 316 308 299 290 289 294
188 187 186 185 186 187 190 193 195 195 196 198 202 207 214 222 229 235 239 240 238 234 231 231 233 234 236 238 244 252 260 266 268 269 267 265 261 259 260 262 265 264 259 252 246 242 240 239 240 242 244 248 253 261 273 287 299 310 319 324 325 323 318 310 302 295 292 292 296
187 185 184 185 187 190 193 196 196 196 198 202 207 213 220 227 233 237 239 237 233 230 228 229 232 234 237 242 250 258 265 268 268 267 264 262 259 257 258 260 261 259 254 248 243 239 238 239 241 243 245 249 254 264 276 289 303 315 323 327 327 323 315 305 297 293 293 296 300
184 183 184 186 189 193 195 196 196 198 202 207 213 219 225 231 235 238 237 234 229 227 227 230 233 237 241 248 257 264 267 268 267 264 261 258 255 255 256 259 258 254 249 245 240 238 237 239 241 244 247 251 257 265 276 290 307 321 329 331 329 322 312 300 293 290 293 298 303
182 183 185 189 193 197 198 197 198 202 206 212 218 224 230 235 237 237 235 231 228 227 229 233 237 242 248 255 263 268 270 269 267 263 259 255 253 253 255 256 254 249 245 242 239 237 237 239 241 244 247 252 258 265 278 295 313 327 333 334 330 322 311 299 292 289 293 299 304
182 185 189 194 198 199 198 199 202 206 211 217 223 229 235 239 240 237 233 230 228 229 233 238 244 249 256 263 267 270 270 269 266 262 258 255 253 253 253 254 251 246 243 240 238 237 238 240 242 244 247 251 256 266 282 302 321 332 336 334 329 321 311 300 292 290 292 298 303
184 188 193 196 198 198 199 201 206 211 216 223 229 237 242 244 242 237 233 230 230 232 237 243 249 256 261 265 267 268 267 266 264 261 258 255 254 252 251 250 248 245 243 240 238 238 239 240 242 244 246 250 257 270 288 308 325 334 336 333 327 320 311 301 292 289 290 295 300
185 188 192 194 196 198 201 205 210 216 223 231 239 245 248 247 242 235 231 229 232 237 243 250 255 259 262 265 266 266 265 264 263 261 258 255 253 252 250 249 247 245 243 240 238 238 239 240 241 242 244 249 259 274 292 310 324 331 332 330 325 319 310 301 291 286 286 289 294
184 187 189 193 196 199 203 207 213 221 230 240 248 252 252 248 239 232 228 230 236 244 252 257 260 263 265 266 265 265 264 263 262 260 257 255 253 251 249 247 246 244 242 239 237 236 237 238 239 240 244 251 263 277 293 308 319 325 327 325 323 319 311 301 291 284 282 284 289
182 185 188 193 196 200 204 209 216 227 238 247 253 254 251 244 235 229 230 236 245 253 259 262 264 265 266 265 264 263 263 263 261 259 257 255 252 251 249 248 246 243 240 237 235 235 236 237 239 241 246 255 266 279 291 303 311 315 317 319 320 319 313 304 294 287 283 284 287
182 185 189 193 197 200 206 213 223 234 245 252 253 251 245 237 232 233 240 250 257 261 264 265 266 265 263 262 261 261 262 262 261 259 257 254 252 251 250 248 245 241 237 234 233 234 236 238 240 243 249 257 267 277 286 295 299 302 306 311 316 318 316 309 300 294 290 289 290
183 186 190 194 198 203 210 217 227 237 245 248 247 244 240 237 240 248 257 264 267 268 268 267 266 263 262 261 260 261 262 263 262 259 256 254 252 252 250 248 244 239 236 233 233 234 237 239 241 246 251 257 265 274 281 286 288 291 295 302 309 314 316 313 307 302 298 296 295
185 189 192 196 200 203 205 208 216 227 235 239 240 241 243 249 257 264 269 272 273 273 271 269 266 263 263 263 263 264 264 263 261 258 256 254 253 252 250 247 243 239 236 234 234 236 238 240 243 247 252 257 265 272 276 279 279 282 287 293 300 307 311 312 310 307 304 302 299
187 191 194 195 193 189 185 186 200 218 230 237 241 246 252 260 267 271 274 275 275 274 273 270 267 266 266 266 266 265 263 261 259 257 255 254 254 253 250 247 242 239 237 236 236 237 239 242 243 247 252 257 264 270 273 272 272 275 280 286 291 298 303 307 307 307 306 305 302
188 188 187 183 177 171 171 182 203 221 233 241 247 253 260 266 270 272 273 274 273 273 272 271 271 270 270 268 266 264 261 258 256 255 255 255 255 254 251 247 243 240 238 237 238 239 240 242 243 246 250 255 261 266 269 268 268 271 275 279 284 290 295 300 302 304 305 305 304
182 179 173 168 164 166 175 193 215 230 241 248 255 260 264 267 269 270 271 272 272 273 273 274 274 273 271 268 265 262 259 257 255 255 255 257 256 255 252 249 245 242 239 238 238 240 241 241 243 245 249 254 259 263 264 264 264 266 271 275 279 284 288 293 296 299 302 304 304
Height
841 842 842 843 844 845 846 847 848 849 850 851 851 852 853 853 854 854 855 855 855 856 856 856 857 857 858 858 858 858 858 858 858 858 858 858 858 858 857 857 857 856 856 856 856 855 855 855 855 855 855 855 855 854 854 854 854 854 854 853 853 853 852 852 852 852 852 852 852
841 842 843 844 845 845 846 847 848 849 850 851 851 852 853 853 854 854 855 855 855 856 856 856 857 857 858 858 858 858 858 858 858 858 858 858 858 858 857 857 857 856 856 856 856 855 855 855 855 855 855 855 854 854 854 854 854 853 853 853 853 852 852 852 852 852 851 851 851
841 842 843 844 845 846 846 847 848 849 850 850 851 852 852 853 854 854 854 855 855 856 856 856 857 857 858 858 858 858 858 858 858 858 858 858 858 858 857 857 857 856 856 856 856 856 855 855 855 855 855 854 854 854 853 853 853 853 853 853 852 852 852 851 851 851 851 851 851
841 842 843 844 845 846 846 847 848 848 849 850 851 852 852 853 853 854 854 854 855 855 856 856 857 857 857 858 858 858 858 858 858 858 858 858 858 857 857 857 856 856 856 856 856 856 855 855 855 854 854 854 853 853 853 853 853 853 852 852 852 851 851 851 851 851 851 851 851
841 842 843 844 845 846 846 847 848 848 849 850 851 851 852 853 853 853 853 854 855 855 856 856 856 856 857 857 857 858 858 858 858 858 858 857 857 857 856 856 856 856 856 856 856 856 855 855 854 854 854 853 853 853 853 853 853 852 852 852 851 851 851 851 851 850 850 850 850
841 842 843 844 845 846 846 847 848 848 849 850 851 851 852 852 852 853 853 854 854 855 856 856 856 856 856 856 857 857 857 857 857 857 857 857 857 856 856 856 856 856 856 856 856 855 855 855 854 854 853 853 853 853 853 853 852 852 852 851 851 851 851 850 850 850 850 850 850
841 842 843 844 845 845 846 847 847 848 849 850 850 851 851 851 852 852 853 854 854 855 855 856 856 856 856 856 856 856 857 857 857 857 857 856 856 856 856 856 855 855 855 855 855 855 855 854 854 853 853 853 853 852 852 852 852 851 851 851 851 851 850 850 850 849 849 849 849
841 842 843 844 844 845 846 846 847 848 848 849 850 850 851 851 852 852 853 854 854 854 855 855 855 855 855 856 856 856 856 856 856 856 856 856 856 856 855 855 855 855 855 855 855 855 854 854 854 853 853 852 852 852 852 851 851 851 851 850 850 850 850 849 849 849 849 848 848
841 842 843 843 844 844 845 846 846 847 848 849 849 850 851 851 852 852 853 853 854 854 854 855 855 855 855 855 855 855 855 855 855 855 855 855 855 855 855 855 855 855 855 855 854 854 854 853 853 853 852 852 852 851 851 851 851 850 850 850 850 849 849 849 849 848 848 848 848
841 841 842 842 843 844 844 845 846 847 847 848 849 850 850 851 851 852 853 853 853 854 854 854 854 855 855 855 855 855 855 855 855 855 855 855 855 855 855 855 854 854 854 854 854 853 853 853 852 852 852 851 851 851 851 850 850 850 849 849 849 849 849 848 848 848 847 847 847
840 841 841 842 842 843 844 845 845 846 847 848 848 849 850 851 851 852 852 853 853 853 853 854 854 854 854 854 854 854 854 854 854 854 854 854 854 854 854 854 854 854 854 854 853 853 852 852 852 851 851 851 851 850 850 850 849 849 849 849 848 848 848 848 847 847 847 846 846
839 840 840 841 841 842 843 844 845 846 846 847 848 848 849 850 851 851 852 852 852 853 853 853 853 854 854 853 853 853 853 853 853 853 853 853 854 854 854 853 853 853 853 853 853 852 852 852 851 851 851 850 850 850 849 849 849 849 848 848 848 848 847 847 847 846 846 846 845
838 839 839 840 841 841 842 843 844 845 846 846 847 847 848 849 850 850 851 851 852 852 852 853 853 853 853 853 853 852 852 853 853 853 853 853 853 853 853 853 853 853 853 852 852 852 852 851 851 850 850 850 849 849 849 848 848 848 848 847 847 847 847 846 846 846 845 845 844
837 838 838 839 840 841 841 842 843 844 845 846 846 847 847 848 849 849 850 851 851 852 852 852 852 852 852 852 852 852 852 852 852 852 852 852 852 852 852 852 852 852 852 852 852 851 851 851 850 850 849 849 849 848 848 848 848 847 847 847 847 846 846 846 845 845 844 843 843
836 836 837 838 839 840 840 841 842 843 844 845 845 846 846 847 848 849 850 850 851 851 851 852 851 851 851 851 851 851 851 851 851 851 851 851 851 851 851 851 851 851 851 851 851 851 850 850 849 849 849 848 848 848 848 847 847 847 846 846 846 846 845 845 844 844 843 842 841
835 836 836 837 838 839 840 840 841 842 843 844 845 845 846 846 847 848 849 850 850 851 851 851 851 851 851 851 851 851 851 851 851 851 851 850 850 850 850 851 851 851 851 850 850 850 849 849 849 848 848 848 848 847 847 847 846 846 846 846 845 845 845 844 844 843 842 841 841
834 834 835 836 837 838 839 840 840 841 842 843 844 845 845 846 846 847 848 849 849 849 850 850 850 850 850 850 850 850 850 850 850 850 850 850 849 849 849 850 850 850 849 849 849 849 848 848 848 848 847 847 847 847 846 846 846 846 845 845 845 844 844 843 843 842 841 841 840
832 833 834 835 836 837 838 839 840 841 841 842 843 844 844 845 846 846 847 847 848 848 848 849 849 849 849 849 849 849 849 849 849 849 849 849 849 849 848 849 849 849 848 848 848 848 848 847 847 847 847 846 846 846 846 845 845 845 844 844 844 843 843 842 842 841 840 840 839
831 832 833 834 835 836 837 838 839 840 841 841 842 843 843 844 844 845 846 846 847 847 847 847 848 848 848 848 848 848 848 848 848 848 848 848 848 848 848 848 848 847 847 847 847 847 847 846 846 846 846 846 846 845 845 845 844 844 844 843 843 843 842 842 841 840 840 839 838
830 831 832 833 834 835 836 837 838 839 840 840 841 841 842 843 843 844 844 845 846 846 846 846 846 846 846 846 846 846 847 847 847 847 847 847 847 847 847 847 846 846 846 846 846 846 846 846 846 845 845 845 845 844 844 844 843 843 843 842 842 842 841 841 840 839 839 838 838
828 830 831 832 833 834 835 836 837 838 838 839 840 840 841 841 842 843 843 844 844 845 845 845 845 845 845 845 845 846 846 846 846 846 846 846 846 846 846 846 846 845 845 845 845 845 845 845 844 844 844 844 844 843 843 843 843 842 842 842 841 841 841 840 839 839 838 837 837
827 828 830 831 832 833 834 835 836 837 837 838 838 839 840 840 841 841 842 843 843 843 843 843 844 844 844 844 844 844 845 845 845 845 845 845 845 845 845 845 844 844 844 844 844 844 844 844 843 843 843 843 843 842 842 842 842 841 841 841 841 840 840 839 838 838 837 837 836
826 828 829 830 831 832 833 834 835 836 836 837 837 838 839 839 840 840 841 841 841 842 842 842 842 842 843 843 843 843 843 844 844 844 844 844 844 844 844 843 843 843 843 843 843 842 842 842 842 842 842 842 842 841 841 841 841 841 840 840 840 839 839 838 837 837 836 836 836
826 827 828 829 830 831 832 833 834 834 835 836 836 837 837 838 838 839 839 840 840 841 841 841 841 841 841 841 842 842 842 842 843 843 843 843 842 842 842 842 842 841 841 841 841 841 841 841 841 841 841 841 841 841 841 841 840 840 840 839 838 838 837 837 836 836 836 835 835
825 826 827 828 829 830 831 832 832 833 834 834 835 836 836 836 837 837 838 838 839 839 840 840 840 840 840 841 841 841 841 841 841 841 841 841 841 841 841 841 841 840 840 840 840 840 840 840 840 840 840 840 840 840 840 840 839 839 838 838 837 837 836 836 835 835 835 834 834
824 825 826 827 828 829 830 831 831 832 832 833 834 834 835 835 836 836 837 837 837 838 838 839 839 839 839 839 839 840 840 840 840 840 840 840 840 840 839 839 839 839 839 839 839 839 839 839 839 839 839 839 839 839 839 839 838 838 838 837 836 836 835 835 834 834 834 833 833
823 824 825 826 827 828 829 830 830 831 831 832 832 833 833 834 834 835 836 836 836 837 837 837 837 837 838 838 838 838 838 838 838 838 838 838 838 838 838 838 838 837 837 837 837 838 838 838 838 838 838 838 838 838 838 838 837 837 837 836 836 835 834 834 833 833 833 832 832
822 823 825 826 826 827 828 829 829 830 830 831 831 832 832 833 833 834 834 835 835 835 836 836 836 836 837 837 837 837 837 837 837 837 837 837 837 836 836 836 836 836 836 836 836 836 837 837 837 837 837 837 837 837 837 837 836 836 836 835 835 834 833 833 832 832 832 831 831
821 822 824 825 826 826 827 827 828 829 829 830 830 831 831 832 832 833 833 834 834 834 834 835 835 835 836 836 836 836 836 835 835 835 835 835 835 835 835 835 835 835 835 835 835 836 836 836 836 836 836 836 836 836 836 836 835 835 835 834 834 833 832 832 831 831 831 831 830
821 822 823 824 825 825 826 826 827 828 828 829 830 830 831 831 832 832 832 832 833 833 833 833 834 834 834 834 834 834 834 834 834 834 834 834 834 834 834 834 834 834 834 834 834 834 834 835 835 835 835 835 835 835 834 834 834 834 833 833 832 832 831 831 831 830 830 830 829
820 821 822 823 824 825 825 826 826 827 828 829 829 830 830 831 831 831 831 831 832 832 832 832 833 833 833 832 832 832 832 832 832 832 832 832 832 832 832 832 833 833 833 833 833 833 833 833 833 833 834 834 833 833 833 833 833 832 832 832 831 831 831 830 830 829 829 829 828
820 821 822 822 823 824 825 826 826 827 828 828 829 829 830 830 831 831 831 831 831 831 831 831 831 831 831 831 831 831 831 831 831 831 831 831 831 831 831 831 831 831 831 831 831 832 832 832 832 832 832 832 832 832 832 831 831 831 831 831 831 830 830 829 829 828 828 828 827
819 820 821 822 823 824 825 825 826 827 827 828 829 829 830 830 830 830 830 830 831 831 831 830 830 830 830 829 829 829 829 830 830 830 830 830 830 830 830 830 830 830 830 830 830 830 831 831 831 831 831 831 831 831 831 830 830 830 830 830 830 829 829 828 828 827 827 827 826
819 820 821 822 823 823 824 825 826 826 827 827 828 829 829 829 829 829 829 829 829 829 829 829 829 828 828 828 828 828 828 828 828 828 828 828 828 828 828 828 828 828 828 829 829 829 829 829 830 830 830 830 830 829 829 829 829 829 829 829 829 828 828 827 827 826 826 826 825
819 820 821 821 822 823 824 824 825 826 826 827 828 828 828 828 828 828 828 828 828 828 827 827 827 826 826 826 826 826 826 826 826 827 827 827 827 826 826 826 826 827 827 827 827 828 828 828 828 828 828 828 828 828 828 828 828 828 828 828 828 827 827 826 826 826 825 825 824
818 819 820 821 822 822 823 824 824 825 826 827 827 827 827 827 827 827 827 827 826 826 826 825 825 825 825 825 825 825 825 825 825 825 825 825 825 825 825 825 825 825 826 826 826 826 827 827 827 827 827 827 827 827 827 827 827 827 827 827 827 826 826 826 825 825 824 824 823
818 819 819 820 821 822 822 823 823 825 826 826 826 826 826 826 826 826 826 825 825 824 824 824 823 823 823 823 823 823 823 823 823 824 824 824 824 823 823 824 824 824 824 825 825 825 826 826 826 826 826 826 826 826 826 826 826 826 826 826 826 825 825 825 824 824 823 823 822
817 818 819 819 820 821 821 822 823 824 825 826 826 826 825 825 825 824 824 823 823 822 822 822 822 821 821 821 821 822 822 822 822 822 822 822 822 822 822 822 822 823 823 823 823 824 824 824 824 825 825 825 825 825 825 825 825 825 825 825 824 824 824 824 823 823 822 822 821
816 817 818 818 819 819 820 821 822 823 824 825 825 824 824 823 823 822 822 822 821 821 821 821 820 820 820 821 821 821 821 821 821 821 821 821 821 821 821 821 821 821 821 821 822 822 822 823 823 823 823 823 823 823 823 823 824 823 823 823 823 823 823 822 822 821 821 821 821
816 816 816 817 817 818 819 820 821 822 823 823 823 823 822 822 821 821 821 820 820 820 819 819 819 819 819 819 819 819 819 819 819 819 819 819 819 819 819 819 819 820 820 820 821 821 821 821 821 822 822 822 822 822 822 822 822 822 822 822 822 821 821 821 821 821 820 820 819
815 815 815 816 816 817 818 820 821 821 822 822 821 821 821 820 820 820 819 819 819 819 818 818 818 818 818 818 818 818 818 818 818 818 818 818 818 818 818 818 818 818 818 819 819 819 820 820 820 821 821 821 821 821 821 821 821 821 821 820 820 820 820 820 820 819 819 819 818